Location: Izdebno
(52.6670°N, 16.2170°E)
Time: 04:49:36
(UTC+02:00)

A-11 Canister half - Pass Details

Date: 12 February 2023
Orbit: 1526 x 1682 km, 47.3° (Epoch: 25 March)

Event Time Altitude Azimuth Distance (km) Brightness Sun altitude
Rises 10:54:35 0° 284° (WNW) 4,699 11.2 21.7°
Reaches altitude 10° 10:59:09 10° 265° (W) 3,731 11.0 21.9°
Maximum altitude 11:04:14 16° 231° (SW) 3,294 11.1 22.2°
Drops below altitude 10° 11:09:23 10° 198° (SSW) 3,781 12.1 22.4°
Sets 11:14:07 0° 179° (S) 4,793 13.0 22.6°
